Location: Newark
(34.3481°N, 134.0494°E)
Time: 00:02:43
(UTC+00:00)

Explorer 7 - Visible Passes

Search period start: 18 January 2020 00:00
Search period end: 28 January 2020 00:00
Orbit: 485 x 679 km, 50.3° (Epoch: 17 January)

Date Brightness Start Highest point End Pass type
(mag) Time Alt. Az. Time Alt. Az. Time Alt. Az.
18 Jan 9.2 20:47:49 10° NNW 20:50:06 15° NNE 20:52:31 10° ENE visible
19 Jan 8.8 20:52:36 11° NNW 20:55:18 20° NNE 20:58:28 10° ENE visible
20 Jan 8.4 20:57:25 13° NNW 21:00:25 29° NNE 21:04:09 10° E visible
21 Jan 7.7 21:02:17 15° NNW 21:05:27 45° NE 21:09:34 10° ESE visible
22 Jan 9.6 19:30:53 13° NE 19:30:53 13° NE 19:31:55 10° ENE visible
22 Jan 6.9 21:07:13 16° NW 21:10:25 77° NE 21:14:42 10° SE visible
23 Jan 9.2 19:35:53 19° NE 19:35:53 19° NE 19:37:49 10° E visible
23 Jan 7.0 21:12:13 16° WNW 21:15:19 60° SW 21:19:33 10° SE visible
24 Jan 8.8 19:40:57 26° ENE 19:40:57 26° ENE 19:43:25 10° E visible
24 Jan 7.8 21:17:17 15° WNW 21:20:10 32° SW 21:24:00 10° SSE visible
25 Jan 8.3 19:46:06 34° E 19:46:06 34° E 19:48:45 10° ESE visible
25 Jan 8.5 21:22:27 11° W 21:24:58 18° SW 21:27:54 10° S visible
26 Jan 8.2 19:51:20 34° SE 19:51:20 34° SE 19:53:48 10° SE visible
27 Jan 8.6 19:56:39 24° SSE 19:56:39 24° SSE 19:58:31 10° SSE visible
